Regional Weather Roundup
Issued by NWS Columbia, SC

Home | Current Version | Previous Version | Text Only | Print | Product List | Glossary On
Versions: 1 2 3 4 5 6 7 8 9 10 11 12 13 14 15 16 17 18 19 20 21 22 23 24 25 26 27 28 29 30 31 32 33 34 35 36 37 38 39 40 41 42 43 44 45 46 47 48 49 50
000
ASUS42 KCAE 290410
RWRCAE
REGIONAL WEATHER ROUNDUP
NATIONAL WEATHER SERVICE COLUMBIA SC
1200 AM EDT SAT AUG 29 2015

NOTE: "FAIR" INDICATES FEW OR NO CLOUDS BELOW 12,000 FEET WITH NO
SIGNIFICANT WEATHER AND/OR OBSTRUCTIONS TO VISIBILITY.

NOT ALL STATIONS ARE QUALITY CONTROLLED BY THE NATIONAL
WEATHER SERVICE. USE DATA WITH CAUTION...ESPECIALLY
DEWPOINT OBSERVATIONS.

SCZ001>056-GAZ040-063>065-077-290500-
...UPSTATE SOUTH CAROLINA...

CITY           SKY/WX    TMP DP  RH WIND       PRES   REMARKS
ANDERSON       PTCLDY    72  64  76 E6        30.19R
LIBERTY        MOCLDY    66  65  94 CALM      30.20S
SPARTANBURG    PTCLDY    68  61  77 CALM      30.20S
CLEMSON        CLEAR     73  65  75 CALM      30.21R
GREENVILLE     PTCLDY    75  57  53 S3        30.22R
GREENWOOD      PTCLDY    70  63  78 CALM      30.20R
GREER          PTCLDY    70  60  70 CALM      30.20R
ROCK HILL      PTCLDY    67  59  75 CALM      30.20S
CHESTER        PTCLDY    70  57  64 CALM      30.20S
LAURENS        PTCLDY    72  64  78 CALM      30.20R


...CENTRAL SOUTH CAROLINA...

CITY           SKY/WX    TMP DP  RH WIND       PRES   REMARKS
COLUMBIA APT   PTCLDY    74  61  63 CALM      30.17R
COLUMBIA OWENS CLEAR     72  61  68 CALM      30.18S
DARLINGTON     CLEAR     66  61  82 CALM      30.19S
FLORENCE       PTCLDY    69  64  84 CALM      30.17S
MCENTIRE ANGB  CLEAR     65  61  86 NE2       30.17S
ORANGEBURG     PTCLDY    70  62  76 CALM      30.17S
SUMTER SHAW    CLEAR     68  60  77 NE3       30.16R
NEWBERRY       CLEAR     68  61  77 SE3       30.21S
AIKEN          FAIR      72  59  64 E3        30.21S
BARNWELL       FAIR      72  68  88 CALM      30.18S
MANNING        FAIR      66  63  88 CALM      30.17S
CAMDEN         FAIR      70  61  73 CALM      30.18S
LANCASTER      PTCLDY    68  61  77 CALM      30.19S
WINNSBORO      CLEAR     72  59  64 E6        30.18S


...EASTERN AND COASTAL SOUTH CAROLINA...

CITY           SKY/WX    TMP DP  RH WIND       PRES   REMARKS
MYRTLE BEACH   PTCLDY    73  64  73 N6        30.17S
N MYRTLE BCH   CLEAR     71  67  87 NE5       30.15S
CONWAY         FAIR      68  68 100 CALM      30.16S FOG
MARION         FAIR      66  63  88 CALM      30.17S
HARTSVILLE     FAIR      70  59  68 CALM      30.17F
FLORENCE       PTCLDY    69  64  84 CALM      30.17S
DARLINGTON     CLEAR     66  61  82 CALM      30.19S
CHARLESTON APT MOCLDY    74  70  87 NE6       30.14F
MOUNT PLEASANT FAIR      75  72  88 CALM      30.15S
WALTERBORO     PTCLDY    73  72  94 NE3       30.16S
BEAUFORT       PTCLDY    76  73  91 N7        30.14S


...EASTERN GEORGIA...

CITY           SKY/WX    TMP DP  RH WIND       PRES   REMARKS
AUGUSTA BUSH F MOCLDY    71  68  90 S3        30.16R
AUGUSTA DANIEL MOCLDY    77  65  66 SE5       30.18R
THOMSON        PTCLDY    72  72  99 CALM      30.21S
WASHINGTON     FAIR      77  77 100 CALM      30.18R
SYLVANIA       CLOUDY    75  74  95 E5        30.16F
STATESBORO     PTCLDY    73  73 100 NE3       30.15S
SAVANNAH       MOCLDY    75  73  93 NE3       30.13S


...SOUTHERN NORTH CAROLINA...

CITY           SKY/WX    TMP DP  RH WIND       PRES   REMARKS
CHARLOTTE      PTCLDY    73  57  57 S3        30.21R
MONROE         CLEAR     66  59  78 CALM      30.19S
WADESBORO      CLEAR     67  61  83 CALM      30.19R
ROCKINGHAM     CLEAR     70  61  72 CALM      30.18S
RUTHERFORDTON  PTCLDY    66  61  83 NW6       30.23R
ASHEVILLE      MOCLDY    64  60  87 CALM      30.27R

$$



USA.gov is the U.S. government's official web portal to all federal, state and local government web resources and services.